Miscellaneous Local Product
Issued by NWS Hastings, NE

Home | Current Version | Previous Version | Graphics & Text | Print | Product List | Glossary On
Versions: 1 2 3 4 5 6 7 8 9 10 11 12 13 14 15 16 17 18 19 20 21 22 23 24 25 26 27 28 29 30 31 32 33 34 35 36 37 38 39 40 41 42 43 44 45 46 47 48 49 50
000
AXUS43 KGID 191202
MISGRI

GID CWA HOURLY WEATHER ROUNDUP
NATIONAL WEATHER SERVICE HASTINGS NE
600 AM CST FRI JAN 19 2018

NOTE: "FAIR" INDICATES FEW OR NO CLOUDS BELOW 12,000 FEET WITH NO
SIGNIFICANT WEATHER AND/OR OBSTRUCTIONS TO VISIBILITY.

...SOUTH CENTRAL NEBRASKA...

CITY           SKY/WX    TMP DP  RH WIND       PRES   REMARKS
GRAND ISLAND   CLOUDY    33  25  72 SW10      29.73F WCI  25
KEARNEY        CLOUDY    32  24  72 SW7       29.75F WCI  26
HASTINGS       CLOUDY    32  19  58 S9        29.76F WCI  24
ORD            PTCLDY    24  21  88 CALM      29.69F
YORK           CLOUDY    30  25  80 S10       29.76S WCI  21
AURORA         CLOUDY    33  22  65 SW13      29.74F WCI  23
LEXINGTON      MOCLDY    28  23  84 CALM      29.74F
HOLDREGE       CLOUDY    33  23  66 SW3       29.75F
HEBRON         CLOUDY    34  22  62 SW7       29.82R WCI  28

...NEBRASKA PANHANDLE...

CITY           SKY/WX    TMP DP  RH WIND       PRES   REMARKS
CHADRON        CLOUDY    45  28  51 W3        29.63F
ALLIANCE       CLOUDY    34  28  79 SW12      29.71F WCI  25
SCOTTSBLUFF    CLOUDY    31  27  85 NW6       29.74F WCI  25
SIDNEY         CLOUDY    30  22  72 W7        29.76F WCI  23

...WESTERN AND NORTH CENTRAL NEBRASKA...

CITY           SKY/WX    TMP DP  RH WIND       PRES   REMARKS
VALENTINE      CLOUDY    41  30  65 SW7       29.62F
AINSWORTH      CLOUDY    44  32  63 W13       29.64S
ONEILL         MOCLDY    38  32  77 SW10      29.63F WCI  31
BROKEN BOW     MOCLDY    35  24  64 S3        29.70F
IMPERIAL       CLOUDY    30  22  72 SW5       29.76F WCI  25
NORTH PLATTE   MOCLDY    24  21  88 NW5       29.75S WCI  18
MCCOOK         MOCLDY    28  20  71 W9        29.76F WCI  19

...EASTERN NEBRASKA...

CITY           SKY/WX    TMP DP  RH WIND       PRES   REMARKS
NORFOLK        CLOUDY    36  27  69 SW12      29.66F WCI  28
SO SIOUX CITY  CLOUDY    26  23  88 SE10      29.68F WCI  16
TEKAMAH        CLOUDY    24  20  84 SE10      29.73F WCI  14
COLUMBUS       CLOUDY    26  23  88 SW6       29.73F WCI  19
ALBION         CLOUDY    37  27  68 CALM      29.69F
OMAHA EPPLEY   CLOUDY    27  22  81 SE13      29.78F WCI  16
OFFUTT AFB     CLOUDY    22  19  88 SE5       29.78F WCI  16
MILLARD        CLOUDY    30  24  77 SE3       29.78F
LINCOLN        CLOUDY    32  22  66 S8        29.79F WCI  25
NEBRASKA CITY  CLOUDY    35  26  70 SW14      29.81F WCI  26
BEATRICE       CLOUDY    32  24  74 S6        29.83R WCI  26
FALLS CITY     CLOUDY    33  22  63 SW9       29.86F WCI  25

...NORTHERN KANSAS...

CITY           SKY/WX    TMP DP  RH WIND       PRES   REMARKS
GOODLAND       CLOUDY    41  14  33 SW12      29.78F
HILL CITY      CLOUDY    32  15  49 W5        29.79F WCI  27
NORTON         SUNNY     30  16  55 SW9       29.77F WCI  22
PHILLIPSBURG   CLEAR     28  16  59 CALM      29.80S
SMITH CENTER     N/A     25  16  68 SE5       29.81S WCI  19
BELOIT         CLEAR     30  18  59 S6        29.83F WCI  24
HAYS           CLOUDY    29  16  58 SW7       29.82F WCI  22
RUSSELL        CLOUDY    32  19  58 S16       29.81F WCI  21
CONCORDIA      CLOUDY    33  22  63 SW20      29.81F WCI  21
SALINA         CLOUDY    33  23  66 S13       29.87F WCI  24
TOPEKA         CLOUDY    32  20  61 S6        29.93F WCI  26



USA.gov is the U.S. government's official web portal to all federal, state and local government web resources and services.